FW9978 Weather Reports


time (UTC)temp
F
wind
direction
speed
knots
gust
knots
rain 1hr
in
rain 24hr
in
rain mn
in
humidity
%
barometer
mb
20260509134503 72 172 0.0 3.5 0.00 0.00 0.00 93 1009.4
20260509133115 72 184 0.0 2.6 0.00 0.00 0.00 93 1009.3
20260509131517 72 161 0.0 0.0 0.00 0.00 0.00 93 1008.6
20260509130133 72 161 1.7 3.5 0.00 0.00 0.00 93 1008.2
20260509124526 72 134 0.9 6.1 0.00 0.00 0.00 93 1008.0
20260509123029 71 145 2.6 8.7 0.00 0.00 0.00 93 1007.8
20260509121538 71 150 5.2 8.7 0.00 0.00 0.00 93 1007.6
20260509120033 71 140 4.3 7.8 0.00 0.00 0.00 93 1007.7
20260509114527 71 123 3.5 12.2 0.00 0.00 0.00 92 1007.7
20260509113029 71 121 2.6 7.0 0.00 0.00 0.00 92 1007.7
20260509111538 71 130 3.5 7.0 0.00 0.00 0.00 92 1007.6
20260509104554 71 131 0.9 5.2 0.00 0.00 0.00 91 1008.1
20260509103032 71 103 0.0 0.0 0.00 0.00 0.00 91 1008.4
20260509101543 71 103 0.0 0.0 0.00 0.00 0.00 91 1008.5
20260509100044 71 104 0.0 1.7 0.00 0.00 0.00 91 1008.7
20260509094528 71 104 0.0 2.6 0.00 0.00 0.00 91 1008.6
20260509093042 71 97 0.9 2.6 0.00 0.00 0.00 91 1008.7
20260509091600 71 92 0.0 2.6 0.00 0.00 0.00 91 1008.6
20260509090113 71 92 0.0 1.7 0.00 0.00 0.00 91 1009.2
20260509084619 71 152 0.0 0.0 0.00 0.00 0.00 90 1009.3
20260509083026 71 152 0.0 2.6 0.00 0.00 0.00 90 1009.3
20260509081539 71 134 0.0 1.7 0.00 0.00 0.00 90 1009.1
20260509080012 71 134 0.0 0.0 0.00 0.00 0.00 90 1009.3
20260509074535 71 134 0.0 1.7 0.00 0.00 0.00 90 1009.6
20260509073037 71 128 0.0 2.6 0.00 0.00 0.00 90 1009.4
20260509071540 71 153 0.9 5.2 0.00 0.00 0.00 90 1009.0
20260509070059 71 123 0.0 0.0 0.00 0.00 0.00 90 1009.7
20260509064538 71 120 0.0 0.0 0.00 0.00 0.00 89 1009.6
20260509063039 72 120 0.0 0.9 0.00 0.00 0.00 89 1009.4
20260509061538 72 161 0.0 0.0 0.00 0.00 0.00 89 1009.0
20260509060042 71 161 0.0 0.0 0.00 0.00 0.00 89 1009.1
20260509054539 71 161 0.0 0.0 0.00 0.00 0.00 89 1009.1
20260509053134 71 162 0.0 0.0 0.00 0.00 0.00 88 1009.1
20260509051547 71 162 0.0 0.0 0.00 0.00 0.00 88 1008.8
20260509050051 71 157 0.0 0.0 0.00 0.00 0.00 88 1009.1
20260509044531 71 159 0.0 0.0 0.00 0.00 0.00 88 1009.2
20260509043042 71 165 0.0 0.0 0.00 0.00 0.00 88 1008.9
20260509041548 72 165 0.0 0.0 0.00 0.00 0.00 87 1008.9
20260509040112 72 164 0.0 0.0 0.00 0.00 0.00 87 1008.5
20260509034632 72 169 0.9 6.1 0.00 0.00 0.00 87 1008.3
20260509033104 72 150 0.0 2.6 0.00 0.00 0.00 87 1008.2
20260509031505 73 131 0.0 3.5 0.00 0.00 0.00 86 1007.9
20260509030116 73 155 0.0 4.3 0.00 0.00 0.00 86 1007.9
20260509024556 73 165 0.9 4.3 0.00 0.00 0.00 86 1007.6
20260509023005 73 118 0.0 3.5 0.00 0.00 0.00 85 1007.6
20260509021520 73 167 0.0 4.3 0.00 0.00 0.00 85 1007.4
20260509020005 73 148 0.0 3.5 0.00 0.00 0.00 85 1007.3
20260509014605 73 153 0.9 4.3 0.00 0.00 0.00 84 1007.4
20260509013118 74 181 0.0 1.7 0.00 0.00 0.00 84 1007.3
20260509011528 74 181 0.0 1.7 0.00 0.00 0.00 83 1007.2
20260509010045 74 181 0.0 0.9 0.00 0.00 0.00 83 1007.2
20260509004539 75 178 0.9 2.6 0.00 0.00 0.00 83 1007.3
20260509003111 76 169 0.9 4.3 0.00 0.00 0.00 83 1007.2
20260509001547 76 173 0.9 3.5 0.00 0.00 0.00 82 1007.3
20260509000104 77 205 0.9 6.1 0.00 0.00 0.00 82 1007.4
20260508234535 77 149 0.0 3.5 0.00 0.00 0.00 82 1007.1
20260508233038 77 177 0.9 6.1 0.00 0.00 0.00 82 1007.4
20260508231601 77 83 1.7 5.2 0.00 0.00 0.00 82 1007.3
20260508230113 77 167 2.6 7.0 0.00 0.00 0.00 82 1007.5
20260508224544 77 228 2.6 6.1 0.00 0.00 0.00 83 1007.8
20260508223037 77 215 1.7 4.3 0.00 0.00 0.00 83 1007.8
20260508221543 76 220 0.9 4.3 0.00 0.00 0.00 84 1008.1
20260508220040 75 169 1.7 3.5 0.00 0.00 0.00 83 1008.4
20260508214533 75 159 0.9 2.6 0.00 0.00 0.00 84 1008.5
20260508213039 75 137 1.7 3.5 0.00 0.00 0.00 83 1008.6
20260508211545 75 128 0.0 3.5 0.00 0.00 0.00 84 1008.8
20260508210047 75 236 0.9 4.3 0.00 0.00 0.00 84 1009.0
20260508204534 75 235 1.7 4.3 0.00 0.00 0.00 84 1009.1
20260508203047 75 209 2.6 6.1 0.00 0.00 0.00 84 1009.1
20260508201534 75 192 1.7 5.2 0.00 0.00 0.00 85 1009.2
20260508200045 74 129 1.7 4.3 0.00 0.00 0.00 85 1009.3
20260508194532 73 117 2.6 7.0 0.00 0.00 0.00 85 1009.6
20260508193036 72 142 2.6 6.1 0.00 0.00 0.00 86 1009.6
20260508191538 72 116 2.6 5.2 0.00 0.00 0.00 86 1010.0
20260508190046 71 146 0.9 3.5 0.00 0.00 0.00 86 1010.4
20260508184526 71 109 0.0 2.6 0.00 0.00 0.00 86 1010.5
20260508183035 70 104 0.9 2.6 0.00 0.00 0.00 86 1010.5
20260508181544 69 123 0.0 1.7 0.00 0.00 0.00 87 1011.0
20260508180048 69 81 0.9 3.5 0.00 0.00 0.00 86 1011.2
20260508174557 68 77 0.9 3.5 0.00 0.00 0.00 86 1011.3
20260508173053 67 24 0.0 2.6 0.00 0.00 0.00 87 1011.6
20260508171558 67 57 0.9 4.3 0.00 0.00 0.00 87 1012.0
20260508170059 67 52 1.7 3.5 0.00 0.00 0.00 87 1012.1
20260508164607 66 44 0.9 3.5 0.00 0.00 0.00 87 1012.4
20260508163038 66 59 0.9 4.3 0.00 0.00 0.00 87 1012.5
20260508161514 65 49 0.9 4.3 0.00 0.00 0.00 87 1012.4
20260508160004 65 54 1.7 3.5 0.00 0.00 0.00 87 1012.7
20260508154525 65 78 0.9 3.5 0.00 0.00 0.00 87 1013.0
20260508153027 65 114 1.7 5.2 0.00 0.00 0.00 87 1012.8
20260508151534 65 58 1.7 4.3 0.00 0.00 0.00 87 1012.8
20260508150033 64 45 0.0 0.0 0.00 0.00 0.00 87 1013.0
20260508144515 64 44 0.0 0.0 0.00 0.00 0.00 87 1013.0
20260508143004 64 44 0.0 2.6 0.00 0.00 0.00 87 1013.2
20260508141513 64 44 0.9 4.3 0.00 0.00 0.00 87 1013.1
20260508140128 64 54 0.0 0.0 0.00 0.00 0.00 88 1012.8